SCOUT A R/B, 2413

Orbit data source: Space-Track

SCOUT A R/B, 2413 is space debris in LEO originally from a launch on Thu, 18 Aug 1966 UTC launched from the Air Force Western Test Range (AFWTR). Debris objects in space refer to the collection of defunct objects orbiting the Earth. Examples of debris include non-operational satellites, rocket bodies, and fragments generated from explosions, collisions, or faulty payload assembly.

Loading next visibility...
SCOUT A R/B details
Identifier
2413, 1966-076B
Orbit
LEO
Last TLE update19 hours ago
Origin
Flag of USNASA LaRC (US)
ManufacturerABL
MissionSpacecraft
Bus & MotorALTAIR, Unknown motor
Mass33 kg wet, 33 kg dry
Launch date (UTC)
1966-08-18 (58 years ago)
Launch vehicleUnknown
Launch site
Air Force Western Test Range (AFWTR)
Object type
Payload
Rocket body
Debris
Shape & HBRCyl, 1.5 m
Radar Cross Section0.687 m², Medium (>0.1 m² and < 1m²)

Expand to show TLE details & history

TLE from 19 hours ago
0 SCOUT A R/B
1 02413U 66076B   25024.22832776  .00000151  00000-0  21009-3 0  9997
2 02413  88.8648 130.9601 0034038  98.6501 261.8509 13.51783038879892
Epoch: 2025-01-24T05:28Z
Definitive object data (Epoch: 2025-01-24T05:28:47.518Z)
Latitude-0.00002°
Longitude-75.0324°
Altitude1,072.336 km
Speed7.314 km/s
True Right ascension08h 43m 50s
True Declination0° 00' 00"
Sunlit
Object was in full shadow at TLE epoch
Visualization TLE readout
Latitude-45.42726°
Longitude106.02394°
Altitude1,099.128 km
Speed7.294 km/s
Apparent Right ascension17h 24m 25s
Apparent Declination-57° 15' 56"
Sunlit
Object is in daylight
Visualization observer readout
Local Sidereal Time01:38:55
Azimuth224.824° SW
Elevation-50.303°
Doppler factor1
Orbital elements
Apogee altitude1,088.084 km
Perigee altitude1,037.429 km
Semi-major axis7,440.893 km
Eccentricity0.0034038
Inclination88.8648°
RAAN130.9601°
Arg. of periapsis98.6501°
True anomaly261.46503°
Mean anomaly261.8509°
Eccentric anomaly261.65794°
Mean motion3.38147 °/min
BSTAR0.00021009
Orbital period106.46 mins
Loading maneuver chart data...
Loading historical data...
Loading historical data...
Loading historical data...
Loading historical data...
Loading historical data...
Loading historical data...
Loading historical data...

SCOUT A R/B Visibility forecast

Observer location: undefined°, undefined

Span
Click to sort rows by Start time (UTC) header in descending order
Start Az.
Max El. time (UTC)
Max El. Az.
Max El.
End time (UTC)
End Az.
10 mins2025-01-25 06:28:07.255Z137.878° SSE2025-01-25 06:33:07.255Z79.837° E29.323°2025-01-25 06:38:07.255Z21.14° NNE
10 mins2025-01-25 08:15:07.255Z218.783° SW2025-01-25 08:19:07.255Z268.631° W30.621°2025-01-25 08:25:07.255Z340.981° N
5 mins2025-01-25 17:39:07.255Z54.06° ENE2025-01-25 17:41:07.255Z74.663° E15.317°2025-01-25 17:44:07.255Z104.585° ESE
11 mins2025-01-25 19:23:07.255Z356.488° N2025-01-25 19:28:07.255Z298.325° NW44.04°2025-01-25 19:34:07.255Z189.585° SSW
|